Hourly Data Report for October 06, 2017

All times are specified in Local Standard Time (LST). Add 1 hour to adjust for Daylight Saving Time where and when it is observed.

DELINE CS
NORTHWEST TERRITORIES

65°12'31.090" N
123°26'00.070" W
212.80 m
2201022
71503
XDE

Download Data

Hourly Data (October 2017)
Hourly Data Report for October 6, 2017
Temp Definition
°C
Dew Point Temp Definition
°C
Rel Hum Definition
%
Wind Dir Definition
10's deg

Wind Spd Definition
km/h
Visibility Definition
km
Stn Press Definition
kPa
Hmdx Definition


Wind Chill Definition


Weather Definition


TIME
00:00 0.6 0.2 97 5 8   96.88     LegendNANA
01:00 0.6 0.2 97 5 11   96.80     LegendNANA
02:00 -0.2 -0.6 97 6 8   96.77   -3 LegendNANA
03:00 0.0 -0.4 97 8 10   96.75   -3 LegendNANA
04:00 1.6 1.2 97 6 11   96.75     LegendNANA
05:00 0.8 0.4 97 1 10   96.72     LegendNANA
06:00 1.5 1.2 98 36 6   96.67     LegendNANA
07:00 2.1 1.8 97 35 10   96.64     LegendNANA
08:00 2.5 2.1 97 34 8   96.62     LegendNANA
09:00 3.3 2.8 96 6 7   96.62     LegendNANA
10:00 3.4 1.8 89 6 12   96.64     LegendNANA
11:00 3.8 2.0 88 5 6   96.64     LegendNANA
12:00 3.8 1.3 84 4 10   96.68     LegendNANA
13:00 3.6 1.1 84 6 12   96.72     LegendNANA
14:00 3.7 0.6 80 2 13   96.77     LegendNANA
15:00 3.7 0.8 81 2 8   96.81     LegendNANA
16:00 3.4 0.1 79 3 14   96.87     LegendNANA
17:00 3.4 -0.1 78 3 11   96.94     LegendNANA
18:00 2.4 0.0 84 2 12   97.01     LegendNANA
19:00 2.0 0.1 88 3 12   97.08     LegendNANA
20:00 1.2 -0.8 86 4 13   97.15     LegendNANA
21:00 0.1 -1.2 91 1 9   97.22     LegendNANA
22:00 -0.6 -1.6 93 34 13   97.29   -5 LegendNANA
23:00 -1.1 -2.2 92 35 7   97.37   -4 LegendNANA

Notes on Data Quality.

Legend

  • E = Estimated
  • M = Missing
  • NA = Not Available
  • ‡ = Partner data that is not subject to review by the National Climate Archives
Date modified: